Flag for U.S.A. Weather past 2 weeks in Palm Springs, California, U.S.A.

Now
68 °F

Clear.


Feels Like: 68 °F
Forecast: 66 / 95 °F
Wind: No wind

Location: Palm Springs Regional Airport


UV Index: 7 (High)

Visibility: 10 mi


Pressure: 29.72 "Hg

Humidity: 30%

Dew point: 35 °F

Location of Palm SpringsLocation

Historic Weather in Palm Springs

°F

Palm Springs temperature yesterday

Maximum temperature yesterday: 93 °F (at 3:53 PM)
Minimum temperature yesterday: 65 °F (at 5:53 AM)
Average temperature yesterday: 80 °F

Past Weeks' High & Low Weather Summary

 TemperatureHumidityPressure
High99 °F (Apr 10, 2:53 PM)64% (Apr 2, 6:53 AM)30.12 "Hg (Apr 2, 6:53 AM)
Low48 °F (Apr 3, 5:53 AM)1% (Apr 10, 11:53 AM)29.66 "Hg (Apr 12, 5:53 PM)
Average74 °F24%29.91 "Hg
* Reported Apr 1 2:53 AM — Apr 16 2:53 AM, Palm Springs, Weather by CustomWeather, © 2014

Note: Actual official high and low records may vary slightly from our data, if they occured in-between our weather recording intervals... More about our weather records

Advertising

Historic Weather Conditions — Data for Previous 24 hours

 ConditionsComfort  
Time TempWeatherWind HumidityBarometerVisibility
2:53 AM
Apr 16
70 °FClear.No wind26%29.72 "Hg10 mi
1:53 AM72 °FClear.No wind24%29.73 "Hg10 mi
12:53 AM76 °FClear.5 mph18%29.73 "Hg10 mi
11:53 PM
Apr 15
80 °FClear.6 mph15%29.74 "Hg10 mi
10:53 PM80 °FClear.5 mph14%29.74 "Hg10 mi
9:53 PM83 °FClear.10 mph10%29.74 "Hg10 mi
8:53 PM85 °FClear.15 mph11%29.74 "Hg10 mi
7:53 PM86 °FSunny.9 mph11%29.71 "Hg10 mi
6:53 PM89 °FSunny.9 mph10%29.70 "Hg10 mi
5:53 PM92 °FSunny.9 mph8%29.71 "Hg10 mi
4:53 PM93 °FSunny.9 mph8%29.72 "Hg10 mi
3:53 PM93 °FSunny.8 mph7%29.75 "Hg10 mi
2:53 PM92 °FSunny.7 mph8%29.78 "Hg10 mi
1:53 PM91 °FSunny.7 mph8%29.81 "Hg10 mi
12:53 PM90 °FSunny.7 mph8%29.85 "Hg10 mi
11:53 AM88 °FSunny.8 mph8%29.88 "Hg10 mi
10:53 AM85 °FSunny.3 mph9%29.90 "Hg10 mi
9:53 AM83 °FSunny.No wind12%29.91 "Hg10 mi
8:53 AM77 °FSunny.6 mph14%29.92 "Hg10 mi
7:53 AM68 °FScattered clouds.6 mph23%29.93 "Hg10 mi
6:53 AM65 °FClear.8 mph25%29.93 "Hg10 mi
5:53 AM65 °FClear.5 mph29%29.93 "Hg10 mi
4:53 AM69 °FClear.5 mph21%29.93 "Hg10 mi
Weather by CustomWeather, © 2014

See weather overview